Showing default

COSMOS 2534 (GLONASS), 44299

Orbit data source: Space-Track

COSMOS 2534 (GLONASS), 44299 is a Commonwealth of Independent States-origin payload satellite in MEO that was launched on Mon, 27 May 2019 UTC via a SOYUZ-2-1B launch vehicle from the Plesetsk Missile And Space Complex (PKMTR). Payloads include a variety of satellites, spacecraft, and rockets equipped with specific instruments for various scientific and technological missions. These include communications satellites like Starlink; space stations such as the ISS; scientific satellites like the Hubble; Earth observation satellites from companies like Planet Labs, Umbra, and HawkEye 360; GPS; miniature CubeSats for education and research; and military/defense satellites.

Loading next visibility...
COSMOS 2534 (GLONASS) details
Identifier
44299, 2019-030A
Orbit
MEO
Last TLE update2 days ago
Origin
Flag of CISVVKOV/IACG (CIS)
ManufacturerResehetnev ISS
MissionOperational Defense Navigation
Bus & MotorURAGAN, Unknown motor
Mass1,450 kg wet, ~1,200 kg dry
Launch date (UTC)
2019-05-27 (6 years ago)
Launch vehicle
SOYUZ-2-1B
Launch site
Plesetsk Missile And Space Complex (PKMTR)
Object type
Payload
Rocket body
Debris
Shape & HBRCyl + 1 Ant + 2 Pan, 7.8 m
Radar Cross Section8.467 m², Large (>1 m²)

Expand to show TLE details & history

TLE from 2 days ago
0 COSMOS 2534 (GLONASS)
1 44299U 19030A   24359.78867894  .00000096  00000-0  00000-0 0  9996
2 44299  64.3664 210.7927 0009102 288.7552  41.3783  2.13102272 43425
Epoch: 2024-12-24T18:55Z
Definitive object data (Epoch: 2024-12-24T18:55:41.86Z)
Latitude-26.71597°
Longitude179.12171°
Altitude19,120.495 km
Speed3.955 km/s
True Right ascension13h 07m 21s
True Declination-26° 40' 39"
Sunlit
Object was in daylight at TLE epoch
Visualization TLE readout
Latitude-10.06114°
Longitude17.90322°
Altitude19,135.393 km
Speed3.952 km/s
Apparent Right ascension01h 51m 50s
Apparent Declination-16° 39' 35"
Sunlit
Object is in daylight
Visualization observer readout
Local Sidereal Time10:59:22
Azimuth289.264° WNW
Elevation-46.082°
Doppler factor1
Orbital elements
Apogee altitude19,152.72 km
Perigee altitude19,106.286 km
Semi-major axis25,507.64 km
Eccentricity0.0009102
Inclination64.3664°
RAAN210.7927°
Arg. of periapsis288.7552°
True anomaly41.4473°
Mean anomaly41.3783°
Eccentric anomaly41.4128°
Mean motion0.53277 °/min
BSTARUnknown
Orbital period675.72 mins
Loading maneuver chart data...
Loading historical data...
Loading historical data...
Loading historical data...
Loading historical data...
Loading historical data...
Loading historical data...
Loading historical data...
Other satellites on launch #30 in the year 2019 (2019-05-27 UTC)

COSMOS 2534 (GLONASS) Visibility forecast

Observer location: undefined°, undefined

Span
Click to sort rows by Start time (UTC) header in descending order
Start Az.
Max El. time (UTC)
Max El. Az.
Max El.
End time (UTC)
End Az.
364 mins2024-12-26 16:17:59.656Z214.949° SW2024-12-26 18:54:59.656Z321.422° NNW41.69°2024-12-26 22:21:59.656Z104.721° ESE
|